Location: Allaines
(49.9632°N, 2.9458°E)
Time: 23:02:23
(UTC+00:00)

X-37B - Pass Details

Date: 29 June 2021
Orbit: 383 x 392 km, 45.0° (Epoch: 01 July)

Event Time Altitude Azimuth Distance (km) Brightness Sun altitude
Rises 22:41:02 0° 267° (W) 2,258 4.6 -15.2°
Reaches altitude 10° 22:43:33 10° 246° (WSW) 1,402 3.3 -15.3°
Enters shadow 22:44:32 14° 230° (SW) 1,166 2.8 -15.4°
